Regional Weather Roundup
Issued by NWS

Home | Current Version | Previous Version | Graphics & Text | Print | Product List | Glossary On
Versions: 1 2 3 4 5 6 7 8 9 10 11 12 13 14 15 16 17 18 19 20 21 22 23 24 25 26 27 28 29 30 31 32 33 34 35 36 37 38 39 40 41 42 43 44 45 46 47 48 49 50
706
ASUS44 KLIX 250610
RWRLA
LOUISIANA WEATHER ROUNDUP
NATIONAL WEATHER SERVICE NEW ORLEANS LA
100 AM CDT SAT OCT 25 2014

NOTE: "FAIR" INDICATES FEW OR NO CLOUDS BELOW 12,000 FEET WITH NO
      SIGNIFICANT WEATHER AND/OR OBSTRUCTIONS TO VISIBILITY.
      SKY/WX - SKY CONDITION AND SIGNIFICANT WEATHER.
      TMP - AIR TEMPERATURE.    DP   - DEWPOINT TEMPERATURE.
      RH  - RELATIVE HUMIDITY.  PRES - PRESSURE.
      HX  - HEAT INDEX.         WCI  - WIND CHILL INDEX.

*  THESE STATIONS ARE NOT NWS OR FAA STATIONS AND ARE NOT UNDER
   NWS QUALITY CONTROL.

LAZ040-048-061>063-065-066-069-250700-
SOUTHEAST LOUISIANA

CITY           SKY/WX    TMP DP  RH WIND       PRES   REMARKS
N.O. AUDUBON   NOT AVBL
N.O. INTL ARPT CLEAR     64  53  67 N7        30.10S
6HR MIN TEMP:  59; 6HR MAX TEMP:  69;

N.O. LAKEFRONT CLEAR     68  53  58 N14       30.10S
6HR MIN TEMP:  68; 6HR MAX TEMP:  72;

N.O. DOWNTOWN* FAIR      66  48  52 N5        30.11R
6HR MIN TEMP:  66; 6HR MAX TEMP:  72;

SLIDELL        CLEAR     51  47  86 CALM      30.10R
6HR MIN TEMP:  49; 6HR MAX TEMP:  61;

BATON ROUGE    CLEAR     53  47  79 CALM      30.12S
6HR MIN TEMP:  53; 6HR MAX TEMP:  64;

BOOTHVILLE     CLEAR     68  59  73 N5        30.08S
6HR MIN TEMP:  65; 6HR MAX TEMP:  68;

BELLE CHASSE   CLEAR     52  49  89 CALM      30.10R
6HR MIN TEMP:  51; 6HR MAX TEMP:  60;

BOGALUSA*        N/A     49  45  87 CALM      30.12S
6HR MIN TEMP:  48; 6HR MAX TEMP:  63;

NEW ROADS*     FAIR      50  49  95 CALM      30.13S
6HR MIN TEMP:  50; 6HR MAX TEMP:  63;

GONZALES*      FAIR      53  53 100 CALM      30.11F
6HR MIN TEMP:  53; 6HR MAX TEMP:  60;

HAMMOND*       CLEAR     50  46  87 CALM      30.13S
HOUMA*         CLEAR     56  50  80 NW6       30.10S
6HR MIN TEMP:  51; 6HR MAX TEMP:  66;

PORT FOURCHON* CLEAR     64  55  72 N6        30.12S

$$

LAZ041-044-053-054-250700-
SOUTHWEST LOUISIANA

CITY           SKY/WX    TMP DP  RH WIND       PRES   REMARKS
LAKE CHARLES   CLEAR     54  51  90 CALM      30.13F
6HR MIN TEMP:  54; 6HR MAX TEMP:  65;

LAFAYETTE      CLEAR     56  51  84 CALM      30.13S
6HR MIN TEMP:  55; 6HR MAX TEMP:  67;

PATTERSON      CLEAR     57  52  82 N6        30.14S
6HR MIN TEMP:  54; 6HR MAX TEMP:  66;

SALT POINT       N/A     61  52  72 CALM      30.11R
6HR MIN TEMP:  61; 6HR MAX TEMP:  67;

NEW IBERIA     CLEAR     55  50  83 N3        30.13S
6HR MIN TEMP:  54; 6HR MAX TEMP:  66;

CHENAULT AIRPK CLEAR     56  52  86 CALM      30.13F
6HR MIN TEMP:  55; 6HR MAX TEMP:  67;


$$

LAZ027-028-250700-
CENTRAL LOUISIANA

CITY           SKY/WX    TMP DP  RH WIND       PRES   REMARKS
FORT POLK      CLEAR     52  50  93 CALM      30.13F
6HR MIN TEMP:  51; 6HR MAX TEMP:  64;

ALEXANDRIA INT CLEAR     50  50 100 CALM      30.12S FOG
6HR MIN TEMP:  50; 6HR MAX TEMP:  64;

ALEXANDRIA     CLEAR     47  46  97 CALM      30.13F
6HR MIN TEMP:  46; 6HR MAX TEMP:  59;


$$

LAZ001-002-250700-
NORTHWEST LOUISIANA

CITY           SKY/WX    TMP DP  RH WIND       PRES   REMARKS
SHREVEPORT     CLEAR     57  54  89 CALM      30.12F
6HR MIN TEMP:  57; 6HR MAX TEMP:  68;

BARKSDALE AFB  CLEAR     55  55  97 SE2       30.13S
6HR MIN TEMP:  55; 6HR MAX TEMP:  67;

DTN SHREVEPORT CLEAR     58  54  86 CALM      30.13S
6HR MIN TEMP:  56; 6HR MAX TEMP:  65;


$$

LAZ014-016-250700-
NORTHEAST LOUISIANA

CITY           SKY/WX    TMP DP  RH WIND       PRES   REMARKS
MONROE         FOG       50  49  96 CALM      30.13F VSB 1
6HR MIN TEMP:  50; 6HR MAX TEMP:  60;

TALLULAH       CLEAR     45  43  93 CALM      30.14S
6HR MIN TEMP:  44; 6HR MAX TEMP:  56;


$$




USA.gov is the U.S. government's official web portal to all federal, state and local government web resources and services.